Weather History for KFSM - April, 2012

Change the Weather History Date:

Friday, April 13, 2012

  Actual Average Record
Temperature  
Mean Temperature 67 °F 61 °F  
Max Temperature 77 °F 73 °F 90 °F (1972)
Min Temperature 57 °F 49 °F 29 °F (1997)
Degree Days  
Heating Degree Days 0 6  
Month to date heating degree days 12 91  
Since 1 July heating degree days 2285 3150  
Cooling Degree Days 2 2  
Month to date cooling degree days 44 16  
Year to date cooling degree days 144 28  
Growing Degree Days 17 (Base 50)    
Moisture  
Dew Point 55 °F    
Average Humidity 64    
Maximum Humidity 72    
Minimum Humidity 56    
Precipitation  
Precipitation 0.00 in 0.13 in 2.52 in (2015)
Month to date precipitation 1.55 1.72  
Year to date precipitation 16.21 11.14  
Sea Level Pressure  
Sea Level Pressure 29.96 in    
Wind  
Wind Speed 7 mph (ESE)    
Max Wind Speed 16 mph    
Max Gust Speed 24 mph    
Visibility 10 miles    
Events      
T = Trace of Precipitation, MM = Missing Value Source: NWS Daily Summary

Daily Weather History Graph

Daily Weather History Graph

Search for Another Location

Airport or City:

Trip Planner

Search our weather history database for the weather conditions in past years. The results will help you decide how hot, cold, wet, or windy it might be!

Date:

Astronomy

Apr. 13, 2012 Rise Set
Actual Time 6:47 AM CDT 7:49 PM CDT
Civil Twilight 6:20 AM CDT 8:15 PM CDT
Nautical Twilight 5:50 AM CDT 8:46 PM CDT
Astronomical Twilight 5:18 AM CDT 9:18 PM CDT
Moon 2:15 AM CDT (4/13) 12:54 PM CDT (4/13)
Length of Visible Light 13h 54m
Length of Day
13h 02m
Waning Gibbous, 47% of the Moon is Illuminated
Apr 13
Waning Gibbous
Apr 21
New
Apr 29
First Quarter
May 5
Full
May 12
Last Quarter

Hourly Weather History & Observations

Time (CDT) Temp. Dew Point Humidity Pressure Visibility Wind Dir Wind Speed Gust Speed Precip Events Conditions
12:53 AM 57.9 °F 48.0 °F 70% 30.00 in 10.0 mi ENE 10.4 mph - N/A   Partly Cloudy
1:53 AM 57.0 °F 46.9 °F 69% 30.00 in 10.0 mi ENE 5.8 mph - N/A   Partly Cloudy
2:53 AM 57.9 °F 46.9 °F 67% 29.99 in 10.0 mi ENE 6.9 mph - N/A   Mostly Cloudy
3:53 AM 59.0 °F 46.9 °F 64% 29.96 in 10.0 mi East 5.8 mph - N/A   Overcast
4:53 AM 59.0 °F 46.9 °F 64% 29.97 in 10.0 mi ENE 8.1 mph - N/A   Mostly Cloudy
5:53 AM 59.0 °F 46.9 °F 64% 29.99 in 10.0 mi ENE 4.6 mph - N/A   Overcast
6:53 AM 59.0 °F 48.0 °F 67% 29.99 in 10.0 mi East 4.6 mph - N/A   Overcast
7:53 AM 60.1 °F 48.9 °F 67% 29.99 in 10.0 mi East 3.5 mph - N/A   Overcast
8:53 AM 63.0 °F 52.0 °F 67% 29.98 in 10.0 mi East 5.8 mph - N/A   Mostly Cloudy
9:53 AM 68.0 °F 55.0 °F 63% 29.99 in 10.0 mi East 5.8 mph - N/A   Mostly Cloudy
10:53 AM 71.1 °F 59.0 °F 66% 29.98 in 10.0 mi East 4.6 mph - N/A   Overcast
11:53 AM 73.4 °F 60.8 °F 65% 29.99 in 10.0 mi SSW 11.5 mph - N/A   Overcast
12:53 PM 73.9 °F 60.1 °F 62% 29.96 in 10.0 mi South 11.5 mph 19.6 mph N/A   Overcast
1:53 PM 73.9 °F 60.1 °F 62% 29.95 in 10.0 mi South 13.8 mph - N/A   Overcast
2:53 PM 77.0 °F 61.0 °F 58% 29.93 in 10.0 mi SSE 10.4 mph - N/A   Overcast
3:53 PM 75.0 °F 61.0 °F 62% 29.92 in 10.0 mi South 9.2 mph - N/A   Overcast
4:53 PM 75.0 °F 61.0 °F 62% 29.91 in 10.0 mi South 5.8 mph - N/A   Overcast
5:53 PM 75.0 °F 62.1 °F 64% 29.92 in 10.0 mi SSE 4.6 mph - N/A   Overcast
6:53 PM 73.9 °F 61.0 °F 64% 29.89 in 10.0 mi SSE 5.8 mph - N/A   Mostly Cloudy
7:53 PM 73.9 °F 61.0 °F 64% 29.91 in 10.0 mi SSE 6.9 mph - N/A   Overcast
8:53 PM 73.0 °F 61.0 °F 66% 29.92 in 10.0 mi SE 6.9 mph - N/A   Overcast
9:53 PM 73.0 °F 60.1 °F 64% 29.93 in 10.0 mi SE 6.9 mph - N/A   Overcast
10:53 PM 73.0 °F 61.0 °F 66% 29.93 in 10.0 mi SSE 8.1 mph - N/A   Overcast
11:53 PM 73.0 °F 61.0 °F 66% 29.93 in 10.0 mi SE 3.5 mph - N/A   Overcast